User: anonymous   Login
Location: ?????????
(38.5999°N, 22.7695°E)
Time: 19:25:35
(UTC+00:00)
Language:

Cosmos 371 Rocket - Orbit

View from above orbital plane
View from above orbital plane
View from above satellite
View from above satellite

Ground track
Ground track

The orbit data is extracted from the following two-line orbital elements,

1 04579U 70083B   24199.39613373  .00001172  00000-0  23942-3 0  9997
2 04579  74.0012 179.3978 0011665 274.5609  85.4225 14.62035823852462
Epoch (UTC): 17 July 2024 09:30:25
Eccentricity: 0.0011665
inclination: 74.0012°
perigee height: 678 km
apogee height: 695 km
right ascension of ascending node: 179.3978°
argument of perigee: 274.5609°
revolutions per day: 14.62035823
mean anomaly at epoch: 85.4225°
orbit number at epoch: 85246

The dashed part of the orbit path shows where the satellite is in the earth's shadow,  

DLR